Погода в Утене

Поиск расширенной информации на нашем сайте:

Полезная информация:

Новости сайта



02.01.2020
Опубликован Долгосрочный прогноз погоды по городам России и ближнего зарубежья на январь 2020 года.
Карты: Прогноз на январь и февраль 2020 года, Сравнение прогнозируемой аномалии приземной температуры воздуха на январь 2020 года по разным моделям.




Погода в Утене - сегодня

Время (UTC), дата Ветер
(°,м/с) 
Видим.   Явления Облачность Т
(°С)
Тd
(°С)
f(%) Тe
(°С)
Pmin
(гПа)
dP
(гПа)
Po
(мм)
O2
(г/м3)
Тmin Tmax R s Состояние
почвы
12 26.02.20 200 (Ю) 5-8{09}  20000 м    8/5 1000 м верхняя 
[Sc|Ci sp]
+7.1 -0.1 60 +5  990.5  -0.2  733  288           
15 26.02.20 220 (ЮЗ) 4-7{10}  20000 м    8/5 600 м верхняя 
[Sc|Ci sp]
+6.9 -0.9 58 +6  991  0.5  734  288           
18 26.02.20 170 (Ю) 2-3{08}  13000 м  слаб. ливневой дождь  10/10 1500 м кучево-дожд. 
[Cb cap]
+4.1 +0.2 76 +4  992.2  1.1  735  292    +7.9  0.0     
21 26.02.20 160 (Ю) 2-4{06}  11000 м  {ливн. осадки}  9/9 1500 м 
[Sc]
+2.4 +1.4 93 +2  992.2  -0.1  734  293           
00 27.02.20 150 (ЮВ) 1-3{04}  9000 м  дымка{ливн. осадки}  8/8 2000 м 
[Sc]
+2.1 +1.3 94 +3  992.2  734  293         
03 27.02.20 270 (З) 1-3{03}  7000 м  дымка  9/9 1440 м 
[Sc]
+1.7 +0.8 94 +2  992.5  0.2  735  294           
06 27.02.20 240 (ЮЗ) 1-3{04}  19000 м    8/6 1500 м средняя, верхняя 
[Sc|Ac und|Ci sp]
+1 -0.7 88 +2  993.3  0.8  735  295  +0.8      влажная 
09 27.02.20 250 (З) 3-7{09}  20000 м    10/10 540 м 
[Sc]
+1.6 -1.7 79 994.3  736  295           
12 27.02.20 250 (З) 4-8{09}  20000 м    8/8 750 м верхняя 
[Sc|Ci sp]
+2.8 -1.6 73 +1  993.8  -0.4  736  294           
15 27.02.20 220 (ЮЗ) 2-5{10}  7000 м  слаб. ливневой снег  10/10 240 м кучево-дожд. 
[Cb cap]
+0.9 -0.4 91 994.4  0.5  736  296           
18 27.02.20 230 (ЮЗ) 3-7{09}  20000 м  {ливн. осадки}  8/5 500 м средняя 
[Sc|Ac und]
+0.8 -2.4 79 -1  994.7  0.3  736  296    +3.2  0.4     
21 27.02.20 240 (ЮЗ) 4-8{09}  20000 м  слаб. ливневой снег  9/9 1110 м кучево-дожд. 
[Cb cap]
+0.6 -2.6 79 -2  994.8  0.1  736  296           
00 28.02.20 240 (ЮЗ) 4-8{10}  20000 м  слаб. ливневой снег  10/10 660 м кучево-дожд. 
[Cb cap]
+0.4 -3.4 76 -2  995.7  0.8  737  297      0.0     
03 28.02.20 240 (ЮЗ) 4-7{11}  1500 м  слаб. снег{ливн. осадки}  10/10 270 м 
[Frnb|Ns]
-0.4 -1.4 93 -3  995.9  0.2  737  298           
06 28.02.20 260 (З) 1-4{09}  5000 м  слаб. снег{ливн. осадки}  10/10 240 м 
[Frnb|Ns]
+0.1 -0.6 95 +1  998  2.1  739  298  -0.6    равномерный
мокрый или
старый снег
100% 
09 28.02.20 300 (СЗ) 3-5{05}  20000 м  слаб. снег  10/10 450 м 
[Ns]
+0 -1.3 91 -2  1000.7  2.7  741  299           
12 28.02.20 300 (СЗ) 3-6{06}  5000 м  слаб. снег  10/10 700 м 
[Ns]
+0.3 -1.2 90 -1  1002.8  742  299      0.6   
15 28.02.20 280 (З) 2-3{07}  19000 м  {снег}  8/6 1500 м средняя 
[Sc|Ac und]
+0.6 -2.2 81 1004.7  1.9  744  299           
18 28.02.20 тихо () -2{05}  14000 м  {снег}  6/6 1500 м 
[Sc]
-1.3 -2.5 92 -1  1006.3  1.5  745  302    +1.4  0.8     
21 28.02.20 230 (ЮЗ) 2-5{05}  16000 м    8/8 210 м 
[St]
-1.2 -2.2 93 -2  1007.1  0.8  745  302           
00 29.02.20 230 (ЮЗ) 20000 м    10/10 1500 м 
[Sc]
-0.5 -1.7 92 -1  1007.2  0.2  746  301           
03 29.02.20 240 (ЮЗ) 1-3{04}  11000 м  слаб. снег  10/10 150 м 
[Frnb|Ns]
-0.3 -1 95 1007  -0.2  745  301           
06 29.02.20 280 (З) 1-3{03}  18000 м  {снег}  10/10 660 м 
[Sc]
-0.1 -1.1 93 +1  1007.3  0.3  746  301  -2.5    0.0  равномерный
сухой снег
100% 
09 29.02.20 250 (З) 1-3{05}  20000 м  слаб. снег  10/10 500 м 
[Sc]
+0.8 -1.1 87 +1  1007.8  0.5  746  300           
12 29.02.20 230 (ЮЗ) 2-4{06}  18000 м  слаб. снег{дождь}  10/10 450 м 
[Ns]
+1 -1.4 84 1007.6  -0.2  746  300      0.0   
Время (UTC), дата Ветер
(°,м/с) 
Видим.   Явления Облачность Т
(°С)
Тd
(°С)
f(%) Тe
(°С)
Pmin
(гПа)
dP
(гПа)
Po
(мм)
O2
(г/м3)
Тmin Tmax R s Состояние
почвы

Для получения пояснительной информации подведите курсор к названию столбца.

ПОГОДА в Утене - архив

Всё, что Вы хотите узнать о погоде в Утене - удобно и подробно!

Выберите нужную дату (начиная с 1 января 2019* года) и нажмите кнопку "Найти".
Будут отображены архивные сводки погоды по пункту Утена, начиная с указанной даты.


Отображать данные в формате CSV (для использования в таблицах Excel)


Внимание! Наш архив погоды предназначен исключительно для личного некоммерческого использования в познавательных целях. Если Вам необходимы официальные справки о состоянии погоды (для производственных, юридических, коммерческих и т.п. целей), обращайтесь в органы Росгидромета.

*Примечание: данная дата относится к архиву по метеостанциям СССР (Россия, СНГ, Балтия).
Архив по метеостанциям Зарубежной Европы и Азии (кроме Китая) хранится 10 дней, по другим регионам земного шара (Китай, Африка, Америка, Австралия, Океания) - 1 день.

Утена - район местоположения метеостанции


Название, широта, долгота, высота метеостанции:
Утена 55.5°ш. 25.6°д. 106 м над ур. моря [Литва]

Дополнительная информация

В oтличие oт бoльшинства пoгoдных сайтoв мы публикуем пoдрoбную метеoинфoрмацию в детальнoм прoфессиoнальнoм фoрмате.

Характеристики температуры и влажнoсти вoздуха измеряются на высoте 2 м в тени вдали oт зданий и деревьев.
Скoрoсть ветра измеряется на высoте 10 м (на урoвне рoста челoвека скoрoсть ветра ниже в 1.5-2 раза). Если метеoстанция нахoдится в гoрoде или в лесу, тo скoрoсть ветра занижена на 2-4 м/с пo сравнению с oткрытым местoм. Скoрoсть ветра над акватoриями крупных рек и oзёр, а также на вершинах хoлмoв на 2-5 м/с выше, чем в oбычных услoвиях.
Атмoсфернoе давление в разных тoчках местнoсти мoжет значительнo oтличаться oт давления на метеoстанции, в зависимoсти oт услoвий рельефа (при пoдъёме на 10 м давление пoнижается примернo на 1 мм рт.ст.).